Total_Precipitation_Accumulation
1.25 1.43 1.54 1.53 1.52 1.58 1.65 1.62 1.64 1.62 1.60 1.54 1.48 1.52 1.59 1.56 1.50 1.55 1.53 1.47 1.45 1.37 1.35 1.40 1.30 1.20 1.28 1.33 1.38 1.38 1.32 1.34 1.37 0.89 0.70 0.75 0.96 1.10 1.16 1.06 1.03 0.99 0.96
1.14 1.26 1.40 1.50 1.51 1.54 1.54 1.58 1.63 1.63 1.59 1.51 1.46 1.46 1.50 1.53 1.50 1.50 1.49 1.46 1.45 1.40 1.35 1.38 1.37 1.30 1.31 1.34 1.42 1.43 1.34 1.26 1.34 1.17 0.92 0.92 1.04 1.17 1.21 1.18 1.16 1.11 0.97
1.08 1.18 1.32 1.44 1.43 1.44 1.39 1.46 1.64 1.73 1.68 1.55 1.49 1.48 1.52 1.57 1.51 1.44 1.50 1.47 1.38 1.32 1.30 1.35 1.37 1.37 1.31 1.28 1.37 1.42 1.36 1.30 1.32 1.34 1.12 1.00 1.08 1.23 1.38 1.39 1.32 1.30 1.16
0.97 1.11 1.24 1.35 1.34 1.31 1.30 1.31 1.45 1.60 1.68 1.62 1.50 1.47 1.53 1.63 1.63 1.57 1.61 1.56 1.43 1.30 1.21 1.22 1.30 1.43 1.44 1.44 1.46 1.43 1.46 1.53 1.50 1.48 1.33 1.19 1.21 1.31 1.48 1.57 1.57 1.49 1.40
0.93 1.02 1.10 1.22 1.30 1.27 1.24 1.27 1.36 1.45 1.49 1.54 1.55 1.49 1.52 1.74 1.95 2.05 1.90 1.61 1.42 1.35 1.18 1.10 1.19 1.45 1.66 1.82 1.86 1.71 1.72 1.87 1.84 1.78 1.65 1.48 1.36 1.42 1.54 1.52 1.61 1.55 1.54
0.92 0.97 1.01 1.15 1.29 1.30 1.23 1.26 1.38 1.47 1.46 1.48 1.51 1.51 1.48 1.67 2.07 2.26 1.87 1.49 1.34 1.31 1.25 1.12 1.13 1.39 1.56 1.73 1.88 1.84 1.85 2.03 2.13 2.08 1.92 1.66 1.35 1.25 1.32 1.52 1.73 1.94 1.91
0.94 0.96 1.01 1.13 1.21 1.28 1.26 1.29 1.39 1.47 1.47 1.46 1.46 1.46 1.44 1.50 1.87 2.07 1.80 1.45 1.31 1.25 1.20 1.16 1.17 1.25 1.40 1.43 1.58 1.64 1.63 1.79 2.02 2.11 2.07 1.65 1.42 1.33 1.54 1.78 1.82 1.95 1.85
0.97 0.96 1.00 1.08 1.12 1.23 1.28 1.30 1.41 1.47 1.43 1.42 1.42 1.41 1.38 1.44 1.74 1.97 1.78 1.47 1.37 1.30 1.26 1.17 1.11 1.15 1.27 1.45 1.55 1.53 1.43 1.47 1.69 1.87 2.06 1.85 1.64 1.66 1.98 2.26 2.35 2.35 2.09
0.96 0.91 0.93 1.00 1.05 1.15 1.22 1.29 1.37 1.47 1.42 1.37 1.34 1.38 1.35 1.37 1.66 1.97 1.84 1.50 1.43 1.34 1.32 1.23 1.09 1.05 1.26 1.45 1.43 1.40 1.33 1.35 1.47 1.67 1.84 1.92 1.94 2.07 2.37 2.80 2.98 2.97 2.67
0.91 0.83 0.87 0.93 0.98 1.07 1.14 1.22 1.30 1.32 1.34 1.35 1.30 1.30 1.29 1.26 1.49 1.88 1.97 1.53 1.42 1.34 1.33 1.28 1.32 1.27 1.37 1.40 1.29 1.38 1.49 1.36 1.28 1.32 1.39 1.46 1.49 1.63 2.04 2.48 2.85 3.00 2.77
0.89 0.83 0.86 0.89 0.93 1.01 1.09 1.11 1.19 1.25 1.26 1.32 1.31 1.27 1.24 1.24 1.34 1.63 1.96 1.65 1.47 1.35 1.34 1.33 1.27 1.42 1.43 1.39 1.36 1.34 1.52 1.44 1.33 1.39 1.38 1.31 1.30 1.40 1.58 1.91 2.43 2.84 2.87
0.84 0.83 0.89 0.93 0.94 0.97 1.03 1.02 1.06 1.17 1.23 1.27 1.31 1.33 1.30 1.26 1.32 1.53 1.76 1.70 1.57 1.37 1.31 1.22 1.20 1.39 1.43 1.45 1.42 1.47 1.52 1.48 1.38 1.42 1.36 1.27 1.27 1.36 1.50 1.69 1.98 2.30 2.44
0.81 0.81 0.88 0.96 0.98 0.99 0.99 1.00 1.04 1.10 1.19 1.23 1.24 1.24 1.27 1.24 1.33 1.58 1.55 1.57 1.56 1.45 1.45 1.48 1.42 1.51 1.53 1.42 1.39 1.45 1.40 1.30 1.37 1.43 1.34 1.18 1.14 1.26 1.37 1.48 1.59 1.80 2.01
0.80 0.80 0.85 0.90 0.96 1.00 0.97 0.92 0.93 1.03 1.15 1.17 1.18 1.13 1.11 1.15 1.35 1.53 1.44 1.40 1.47 1.54 1.59 1.57 1.55 1.58 1.53 1.47 1.40 1.29 1.19 1.21 1.31 1.33 1.26 1.15 1.08 1.14 1.26 1.36 1.48 1.58 1.85
0.73 0.72 0.78 0.80 0.90 1.00 0.99 0.93 0.92 0.93 1.11 1.23 1.18 1.13 1.16 1.28 1.45 1.60 1.52 1.48 1.51 1.58 1.67 1.71 1.64 1.59 1.57 1.45 1.27 1.14 1.10 1.18 1.23 1.17 1.17 1.19 1.16 1.15 1.16 1.22 1.39 1.51 1.71
0.69 0.68 0.71 0.75 0.81 0.91 0.94 0.96 1.05 1.04 1.07 1.08 1.08 1.13 1.11 1.27 1.40 1.42 1.44 1.50 1.60 1.67 1.71 1.69 1.51 1.34 1.29 1.23 1.15 1.09 1.06 1.07 1.07 1.09 1.15 1.15 1.14 1.16 1.16 1.16 1.28 1.45 1.59
0.68 0.68 0.70 0.74 0.77 0.83 0.85 0.84 0.97 1.08 1.12 1.06 1.00 1.03 1.11 1.19 1.25 1.28 1.33 1.40 1.50 1.53 1.49 1.35 1.24 1.18 1.13 1.08 1.03 1.00 1.00 0.96 0.96 1.05 1.10 1.11 1.08 1.12 1.16 1.18 1.23 1.36 1.48
0.70 0.75 0.77 0.75 0.77 0.82 0.81 0.77 0.80 0.88 0.96 1.02 1.03 1.02 1.08 1.14 1.19 1.21 1.26 1.39 1.46 1.32 1.19 1.18 1.16 1.13 1.14 1.15 1.09 1.04 0.99 0.97 0.98 1.00 1.02 1.04 1.07 1.14 1.17 1.14 1.16 1.29 1.40
0.74 0.77 0.80 0.78 0.80 0.83 0.82 0.79 0.79 0.80 0.83 0.89 0.96 1.05 1.14 1.17 1.18 1.23 1.22 1.21 1.21 1.15 1.09 1.10 1.10 1.12 1.16 1.18 1.11 1.05 1.03 0.98 0.94 0.95 0.94 0.94 0.97 1.07 1.10 1.05 1.10 1.22 1.33
0.81 0.90 0.90 0.84 0.83 0.87 0.88 0.88 0.86 0.85 0.86 0.86 0.89 0.98 1.14 1.22 1.22 1.25 1.20 1.14 1.12 1.08 1.05 1.09 1.09 1.11 1.16 1.18 1.13 1.07 1.05 0.99 0.94 0.92 0.90 0.89 0.90 0.99 1.04 1.04 1.09 1.16 1.20
0.86 0.91 0.98 0.90 0.85 0.91 0.97 0.96 0.92 0.92 0.93 0.89 0.86 0.94 1.20 1.26 1.16 1.07 1.09 1.10 1.11 1.11 1.12 1.14 1.14 1.13 1.12 1.13 1.12 1.05 1.01 0.98 0.94 0.92 0.89 0.89 0.91 0.96 0.97 1.02 1.07 1.08 1.12
0.88 0.91 0.94 0.93 0.90 0.96 1.02 1.01 0.98 0.98 0.97 0.95 0.91 0.95 1.08 1.03 1.00 1.00 1.02 1.04 1.06 1.09 1.14 1.20 1.18 1.14 1.14 1.14 1.13 1.08 0.99 0.93 0.90 0.92 0.92 0.88 0.88 0.90 0.92 0.96 1.00 1.03 1.06
0.91 0.94 0.97 0.97 0.93 1.02 1.06 1.03 1.01 1.00 0.99 0.96 0.97 0.96 0.98 0.99 1.01 1.04 1.07 1.07 1.08 1.11 1.10 1.12 1.13 1.10 1.08 1.07 1.07 1.10 1.06 0.93 0.88 0.93 0.99 0.93 0.86 0.85 0.88 0.90 0.90 0.95 0.99
0.96 0.97 0.99 1.00 0.98 0.99 1.03 1.07 1.05 1.03 1.02 1.01 1.02 1.02 1.01 1.03 1.03 1.04 1.07 1.09 1.11 1.10 1.06 1.06 1.05 1.04 1.02 1.01 0.99 0.98 0.96 0.96 1.03 1.06 1.03 1.01 0.94 0.86 0.87 0.88 0.86 0.88 0.95
1.00 1.00 1.02 1.05 1.05 1.04 1.05 1.07 1.05 1.06 1.05 1.03 1.02 1.04 1.02 1.02 1.02 1.02 1.05 1.05 1.07 1.06 1.00 1.01 1.05 1.06 1.02 0.96 0.92 0.92 1.02 1.11 1.19 1.27 1.28 1.19 1.03 0.91 0.88 0.88 0.85 0.86 0.91
1.00 1.01 1.03 1.06 1.08 1.06 1.06 1.09 1.07 1.07 1.09 1.05 1.01 1.02 1.03 1.03 1.01 1.00 1.01 1.03 1.07 1.04 0.98 0.96 1.00 1.01 0.99 0.96 0.95 1.01 1.10 1.11 1.15 1.21 1.30 1.30 1.11 0.94 0.90 0.91 0.86 0.86 0.90